Date String (YYYY-MM-DD hh:mm:ss) UTC,Instrument flags,Ambient pressure (hPa),Sample flow (lpm),Bypass flow (lpm),Sample temperature (°C),Ambient temperature (°C),ASC tube jacket temperature (°C),LED temperature (°C),Box temperature (°C),Sample RH (%),Span deviation,Mass concentration (μg/m³),Mass concentration (μg/m³),Mass concentration (μg/m³)
DateTimeUTC,F1_M11,P_M11,Q1_M11,Q2_M11,T1_M11,T2_M11,T3_M11,T4_M11,T5_M11,U1_M11,ZSPAN_M11,X0_M11,X2_M11,X1_M11
2022-07-17 01:00:00,,0829.0,5.00,0.00,29.4,27.5,00.0,38.1,31.2,28.9,0000.0,0009.23,0005.50,0004.87
2022-07-17 01:01:00,,0829.1,5.00,0.00,29.4,27.7,00.0,38.1,31.3,29.1,0000.0,0009.20,0005.47,0004.86
2022-07-17 01:02:00,,0829.1,4.99,0.00,29.4,27.9,00.0,38.1,31.3,28.2,0000.0,0009.31,0005.51,0004.85
2022-07-17 01:03:00,,0829.1,5.00,0.00,29.5,28.1,00.0,38.1,31.4,26.7,0000.0,0009.05,0005.48,0004.85
2022-07-17 01:04:00,,0829.0,5.00,0.00,29.5,28.3,00.0,38.2,31.5,27.3,0000.0,0008.88,0005.42,0004.85
2022-07-17 01:05:00,,0829.0,5.00,0.00,29.6,28.4,00.0,38.2,31.6,27.1,0000.0,0008.85,0005.42,0004.85
2022-07-17 01:06:00,,0829.0,4.99,0.00,29.6,28.3,00.0,38.2,31.6,26.4,0000.0,0009.17,0005.44,0004.85
2022-07-17 01:07:00,,0828.9,5.00,0.00,29.6,27.7,00.0,38.1,31.5,26.8,0000.0,0009.71,0005.44,0004.84
2022-07-17 01:08:00,,0828.9,5.00,0.00,29.6,27.3,00.0,38.1,31.4,26.6,0000.0,0009.83,0005.40,0004.83
2022-07-17 01:09:00,,0828.9,5.01,0.00,29.5,27.3,00.0,38.1,31.3,27.1,0000.0,0009.77,0005.38,0004.81
2022-07-17 01:10:00,,0828.9,5.01,0.00,29.4,27.4,00.0,38.1,31.2,26.6,0000.0,0009.90,0005.39,0004.79
2022-07-17 01:11:00,,0828.8,4.99,0.00,29.4,27.5,00.0,38.1,31.2,27.6,0000.0,0010.27,0005.38,0004.78
2022-07-17 01:12:00,,0828.9,5.00,0.00,29.4,27.7,00.0,38.1,31.3,27.6,0000.0,0010.38,0005.39,0004.77
2022-07-17 01:13:00,,0828.9,4.99,0.00,29.5,27.9,00.0,38.1,31.4,28.1,0000.0,0010.22,0005.33,0004.75
2022-07-17 01:14:00,,0828.9,5.01,0.00,29.5,28.1,00.0,38.2,31.4,28.1,0000.0,0010.14,0005.31,0004.72
2022-07-17 01:15:00,,0828.9,5.00,0.00,29.5,28.3,00.0,38.2,31.5,28.0,0000.0,0010.16,0005.31,0004.69
2022-07-17 01:16:00,,0828.9,5.00,0.00,29.6,28.5,00.0,38.2,31.6,28.0,0000.0,0010.16,0005.28,0004.66
2022-07-17 01:17:00,,0828.8,5.01,0.00,29.6,28.4,00.0,38.2,31.6,27.6,0000.0,0009.93,0005.23,0004.62
2022-07-17 01:18:00,,0829.1,5.00,0.00,29.6,27.8,00.0,38.2,31.5,28.0,0000.0,0009.21,0005.17,0004.58
2022-07-17 01:19:00,,0829.3,4.99,0.00,29.6,27.3,00.0,38.1,31.4,28.1,0000.0,0008.90,0005.12,0004.54
2022-07-17 01:20:00,,0829.0,5.01,0.00,29.5,27.2,00.0,38.1,31.3,27.8,0000.0,0008.88,0005.10,0004.50
2022-07-17 01:21:00,,0828.7,5.00,0.00,29.5,27.3,00.0,38.1,31.2,27.7,0000.0,0008.63,0005.00,0004.45
2022-07-17 01:22:00,,0828.7,5.00,0.00,29.4,27.5,00.0,38.1,31.2,27.5,0000.0,0008.24,0004.95,0004.42
2022-07-17 01:23:00,,0829.0,5.00,0.00,29.4,27.7,00.0,38.1,31.3,27.8,0000.0,0008.12,0004.91,0004.38
2022-07-17 01:24:00,,0829.2,5.00,0.00,29.5,27.9,00.0,38.2,31.4,27.7,0000.0,0008.10,0004.87,0004.36
2022-07-17 01:25:00,,0828.8,5.01,0.00,29.5,28.1,00.0,38.2,31.4,28.1,0000.0,0008.06,0004.83,0004.33
2022-07-17 01:26:00,,0829.2,5.01,0.00,29.5,28.2,00.0,38.2,31.5,28.2,0000.0,0008.08,0004.80,0004.31
2022-07-17 01:27:00,,0829.1,4.99,0.00,29.6,28.4,00.0,38.2,31.6,28.1,0000.0,0008.08,0004.77,0004.29
2022-07-17 01:28:00,,0829.2,5.01,0.00,29.6,28.5,00.0,38.2,31.6,28.1,0000.0,0008.11,0004.75,0004.28
2022-07-17 01:29:00,,0828.8,5.00,0.00,29.6,28.0,00.0,38.2,31.6,27.6,0000.0,0008.12,0004.74,0004.28
2022-07-17 01:30:00,,0828.7,4.99,0.00,29.6,27.4,00.0,38.1,31.5,27.7,0000.0,0008.05,0004.72,0004.27
2022-07-17 01:31:00,,0828.8,5.00,0.00,29.5,27.2,00.0,38.1,31.4,28.2,0000.0,0008.06,0004.73,0004.27
2022-07-17 01:32:00,,0828.6,5.00,0.00,29.5,27.3,00.0,38.1,31.3,28.6,0000.0,0008.02,0004.71,0004.28
2022-07-17 01:33:00,,0828.6,5.01,0.00,29.4,27.4,00.0,38.1,31.2,28.7,0000.0,0007.94,0004.68,0004.29
2022-07-17 01:34:00,,0828.6,4.98,0.00,29.4,27.6,00.0,38.1,31.3,28.9,0000.0,0007.90,0004.67,0004.29
2022-07-17 01:35:00,,0828.6,5.01,0.00,29.5,27.8,00.0,38.2,31.3,28.9,0000.0,0007.91,0004.68,0004.29
2022-07-17 01:36:00,,0828.7,4.99,0.00,29.5,28.0,00.0,38.2,31.4,28.9,0000.0,0008.52,0004.69,0004.31
2022-07-17 01:37:00,,0828.7,5.01,0.00,29.5,28.2,00.0,38.2,31.5,28.8,0000.0,0008.61,0004.69,0004.31
2022-07-17 01:38:00,,0828.7,4.99,0.00,29.6,28.4,00.0,38.2,31.5,28.7,0000.0,0008.62,0004.75,0004.32
2022-07-17 01:39:00,,0828.9,5.01,0.00,29.6,28.5,00.0,38.2,31.6,28.7,0000.0,0008.54,0004.75,0004.33
2022-07-17 01:40:00,,0828.6,4.99,0.00,29.6,28.1,00.0,38.2,31.6,28.8,0000.0,0008.49,0004.77,0004.33
2022-07-17 01:41:00,,0828.8,5.01,0.00,29.6,27.4,00.0,38.1,31.5,28.7,0000.0,0008.94,0004.83,0004.34
2022-07-17 01:42:00,,0828.8,5.00,0.00,29.6,27.1,00.0,38.1,31.4,28.5,0000.0,0009.07,0004.85,0004.36
2022-07-17 01:43:00,,0828.6,5.00,0.00,29.5,27.2,00.0,38.1,31.2,28.6,0000.0,0009.07,0004.85,0004.37
2022-07-17 01:44:00,,0829.1,5.00,0.00,29.4,27.3,00.0,38.1,31.2,28.6,0000.0,0009.12,0004.88,0004.38
2022-07-17 01:45:00,,0829.2,5.00,0.00,29.4,27.5,00.0,38.1,31.2,28.6,0000.0,0009.33,0004.91,0004.38
2022-07-17 01:46:00,,0829.2,5.00,0.00,29.4,27.7,00.0,38.2,31.3,28.6,0000.0,0009.37,0004.90,0004.38
2022-07-17 01:47:00,,0829.2,5.01,0.00,29.5,27.9,00.0,38.2,31.4,28.6,0000.0,0009.09,0004.91,0004.38
2022-07-17 01:48:00,,0829.2,5.01,0.00,29.5,28.1,00.0,38.2,31.4,28.6,0000.0,0008.65,0004.91,0004.38
2022-07-17 01:49:00,,0829.1,4.99,0.00,29.5,28.3,00.0,38.2,31.5,28.6,0000.0,0008.56,0004.87,0004.37
2022-07-17 01:50:00,,0829.2,5.01,0.00,29.6,28.4,00.0,38.2,31.6,28.5,0000.0,0008.66,0004.85,0004.35
2022-07-17 01:51:00,,0829.2,4.99,0.00,29.6,28.5,00.0,38.2,31.6,28.4,0000.0,0008.63,0004.83,0004.34
2022-07-17 01:52:00,,0829.1,5.00,0.00,29.6,27.9,00.0,38.2,31.6,28.3,0000.0,0008.45,0004.81,0004.32
2022-07-17 01:53:00,,0829.2,5.01,0.00,29.6,27.3,00.0,38.1,31.4,28.5,0000.0,0008.17,0004.78,0004.30
2022-07-17 01:54:00,,0829.0,5.00,0.00,29.5,27.2,00.0,38.1,31.3,28.4,0000.0,0008.33,0004.80,0004.28
2022-07-17 01:55:00,,0829.2,5.00,0.00,29.5,27.3,00.0,38.1,31.2,28.3,0000.0,0008.90,0004.79,0004.25
2022-07-17 01:56:00,,0828.9,5.00,0.00,29.4,27.4,00.0,38.2,31.2,28.3,0000.0,0009.13,0004.78,0004.23
2022-07-17 01:57:00,,0828.7,5.00,0.00,29.4,27.6,00.0,38.2,31.2,28.3,0000.0,0008.96,0004.75,0004.21
2022-07-17 01:58:00,,0828.8,5.01,0.00,29.4,27.8,00.0,38.2,31.3,28.3,0000.0,0009.06,0004.76,0004.18
2022-07-17 01:59:00,,0828.6,4.99,0.00,29.5,28.0,00.0,38.2,31.4,28.4,0000.0,0009.31,0004.78,0004.17
